Showing default

APRIZESAT 10, 40019

Orbit data source: Space-Track

APRIZESAT 10, 40019 is a payload satellite owned by SpaceQuest (US) in SSO that was launched on Thu, 19 Jun 2014 UTC via a DNEPR launch vehicle from the Orenburg, Russia (OREN). Payload-class satellites include a variety of spacecraft equipped with specific instruments for various scientific and technological missions. These include communications satellites like Starlink; space stations such as the ISS; scientific satellites like the Hubble; Earth observation satellites from companies like Planet Labs, Umbra, and HawkEye 360; GPS; miniature CubeSats for education and research; and military/defense satellites.

Loading next visibility...
Identifier
40019, 2014-033K
Orbit
SSO
Country
Flag of USUS
Related business
Manufacturer
SpaceQuest
Mission
Operational Commercial Communications
Bus & Motor
APRIZE, Unknown motor
Mass
14 kg wet, 14 kg dry
Launch date (UTC)
2014-06-19 (12 years ago)
Launch vehicle
DNEPR
Launch site
Orenburg, Russia (OREN)
Object type
Payload
Rocket body
Debris
Shape & HBR
Box + 1 Ant, 0.2 m
Radar Cross Section
0.060 m², Medium (>0.1 m² and < 1m²)

Expand to show TLE details & history
Last TLE update: 8 hours ago

TLE from 8 hours ago
0 APRIZESAT 10
1 40019U 14033K   26254.17893634  .00000241  00000-0  45822-4 0  9997
2 40019  97.9757  19.2711 0078638   0.2600 359.8634 14.70963420654897
Epoch: 2026-09-11T04:17Z
TLE epoch observation values (Epoch: 2026-09-11T04:17:40.099Z)
Latitude
-0.00005°
Longitude
-35.35198°
Altitude
605.659 km
Speed
7.586 km/s
True Right ascension
01h 17m 05s
True Declination
0° 00' 00"
Sunlit
Object was in full shadow at epoch
Visualization orbit readout
Latitude
Unknown
Longitude
Unknown
Altitude
Unknown
Speed
Unknown
Apparent Right ascension
Unknown
Apparent Declination
Unknown
Sunlit
N/A
Visualization observer readout
Local Sidereal Time
05:07:10
Azimuth
Unknown
Elevation
Unknown
Doppler factor
Unknown
Orbital elements
Apogee altitude
710.358 km
Perigee altitude
599.743 km
Semi-major axis
7,033.187 km
Eccentricity
0.00786
Inclination
97.9757°
RAAN
19.2711°
Arg. of periapsis
0.26°
True anomaly
359.86123°
Mean anomaly
359.8634°
Eccentric anomaly
359.86232°
Mean motion
3.67972 °/min
Orbital period
97.83 mins
BSTAR
0.000045822
Loading maneuver chart data...
Computing Atmospheric mass density...
Loading historical data...
Loading historical data...
Loading historical data...
Loading historical data...
Loading historical data...
Loading historical data...
Loading historical data...

Documentation

Showing up to 5 results
|